[[{"header":{"parameterUnit":"m.s-1","parameterCategory":1,"la1":30.2991,"la2":30.254,"lo1":-89.0895,"lo2":-89.0444,"dy":0.0017,"dx":0.0017,"nx":28,"ny":28,"refTime":"2023-10-09T03:00:00:Z","depth":0,"parameterNumber":2,"parameterNumberName":"U-component_of_WINDS"},"data":[0,0,0,0,0,0,0,0,0,0,0,0,0,0,0,0,0,0,0,0,0,0,0,0,0,0,0,0,0,0,0,0,0,0,0,0,0,0,0,0,0,0,0,0,0,0,0,0,0,0,0,0,0,0,0,0,0,0,1.5037,1.5038,0,1.5123,1.5124,1.5125,1.5134,1.5133,1.5132,1.5131,1.5218,1.5221,1.5224,0,0,0,0,0,0,0,0,0,0,0,0,0,1.4876,1.4879,1.5037,1.5038,1.5039,1.5123,1.5124,1.5125,1.5134,1.5133,1.5132,1.5131,1.5217,1.5221,1.5225,0,0,0,0,0,0,0,0,0,0,0,0,0,1.4952,1.488,1.5037,1.5053,1.5056,1.5123,1.5124,1.5126,1.5134,1.5133,1.5132,1.513,1.5216,1.522,1.5225,1.528,0,0,1.5239,1.5241,0,0,0,0,0,0,0,0,1.4948,1.4958,1.505,1.5052,1.5055,1.5116,1.5099,1.5177,1.5135,1.5104,1.5131,1.513,1.5185,1.5192,1.5211,1.5285,1.5288,1.524,1.5243,1.5245,1.5246,0,0,0,0,0,0,0,1.4943,1.4955,1.5071,1.5051,1.5054,1.5056,1.5065,1.5114,1.5151,1.5107,1.5108,1.5118,1.5186,1.5207,1.5213,1.529,1.524,1.5244,1.5247,1.5249,1.5409,1.541,0,0,0,0,0,0,1.4935,1.495,1.5068,1.5073,1.4997,1.506,1.507,1.5098,1.5151,1.5157,1.5119,1.5118,1.5199,1.5208,1.5217,1.5282,1.5245,1.5249,1.5252,1.5408,1.5409,1.5411,0,0,0,0,0,0,1.4931,1.4945,1.5065,1.5012,1.5027,1.5064,1.5095,1.51,1.5121,1.516,1.5166,1.5133,1.5199,1.521,1.5264,1.5286,1.5251,1.5255,1.5406,1.5408,1.541,1.5416,0,0,0,0,0,0,1.4927,1.4944,1.4966,1.5013,1.503,1.5111,1.5097,1.5103,1.5129,1.5129,1.5175,1.5181,1.5199,1.5257,1.5269,1.5291,1.5259,1.5404,1.5407,1.5409,1.5414,1.5418,1.5422,0,0,0,0,0,1.4921,1.4965,1.4967,1.4982,1.5059,1.5113,1.5123,1.5142,1.5131,1.5153,1.5177,1.518,1.5282,1.5262,1.5276,1.53,1.5403,1.5406,1.5409,1.5412,1.5417,1.5422,0,0,0,0,0,0,1.492,1.4971,1.4975,1.5035,1.507,1.5114,1.5143,1.5147,1.5185,1.5183,1.5205,1.5216,1.5268,1.529,1.5267,1.5355,1.5341,1.5347,1.5339,1.5344,1.5348,1.534,1.5263,0,0,0,0,0,1.4927,1.4968,1.501,1.5059,1.5076,1.5106,1.513,1.5142,1.5179,1.5193,1.5222,1.5256,1.5295,1.5321,1.536,1.5418,1.5426,1.5441,1.5445,1.5448,1.5452,1.5481,1.5487,1.5422,1.5422,1.5421,0,0,1.4942,1.4975,1.4999,1.506,1.5088,1.5127,1.5118,1.5162,1.519,1.52,1.5251,1.5274,1.5313,1.5368,1.5394,1.5388,1.5472,1.5452,1.5454,1.5457,1.5485,1.5491,1.5497,1.5424,1.5423,1.5423,0,0,1.4988,1.5019,1.5061,1.5089,1.5131,1.5151,1.5161,1.5205,1.522,1.5272,1.5279,1.5314,1.5382,1.5409,1.5432,1.5486,1.5489,1.5498,1.5517,1.5546,1.5551,1.5555,1.5572,1.5578,1.5503,1.5503,1.5503,0,1.5001,1.5062,1.5083,1.5125,1.515,1.516,1.5202,1.5228,1.5281,1.5297,1.529,1.5374,1.5402,1.5462,1.5475,1.5494,1.5505,1.5492,1.5549,1.5553,1.5558,1.5574,1.5581,1.5504,1.5503,1.5503,1.5503,0,1.5074,1.5116,1.5145,1.5195,1.5224,1.5266,1.5291,1.5318,1.5327,1.5347,1.5398,1.5432,1.5476,1.5492,1.5502,1.5553,1.5547,1.5544,1.553,1.5565,1.558,1.5587,1.5505,1.5504,1.5504,1.5504,0,0,1.5123,1.5182,1.5192,1.5214,1.526,1.5292,1.5334,1.5377,1.5398,1.5434,1.5468,1.5524,1.5521,1.5547,1.5559,1.5584,1.5622,1.5578,1.5579,1.5583,1.5677,1.5678,1.5685,1.5624,1.5626,1.5627,1.5673,0,1.5172,1.5247,1.5266,1.5328,1.5366,1.5375,1.541,1.5442,1.5461,1.5495,1.5516,1.5555,1.5549,1.5564,1.5589,1.5612,1.5641,1.5609,1.5654,1.5655,1.5642,1.5693,1.5695,1.5737,1.5679,1.5681,1.5681,0,1.5241,1.5277,1.5343,1.5382,1.5398,1.543,1.547,1.5503,1.5538,1.555,1.5578,1.5587,1.5629,1.5614,1.567,1.5648,1.5668,1.5682,1.5684,1.5687,1.5669,1.5696,1.5751,1.5756,1.5692,1.5691,1.569,0,1.5266,1.5331,1.5379,1.5397,1.5445,1.5467,1.5487,1.5521,1.5545,1.558,1.5595,1.5634,1.5655,1.5685,1.5704,1.5692,1.5758,1.5745,1.5767,1.5767,1.578,1.5778,1.5836,1.5796,1.5796,1.5796,1.5796,0,1.5318,1.5358,1.539,1.5419,1.5463,1.5484,1.5526,1.5547,1.5577,1.5609,1.562,1.5649,1.5674,1.5707,1.5722,1.5765,1.5775,1.5784,1.5788,1.5782,1.5781,1.5794,1.5791,1.5797,1.5797,1.5797,1.5796,0,1.5354,1.5377,1.5429,1.5469,1.548,1.5511,1.5545,1.5572,1.5591,1.5631,1.5642,1.5672,1.571,1.5733,1.5782,1.5792,1.5839,1.5842,1.5827,1.5828,1.5848,1.5845,1.5915,1.5925,1.588,1.588,1.588,0,1.5384,1.5415,1.5458,1.548,1.5501,1.5537,1.5561,1.5582,1.5606,1.5647,1.5669,1.5709,1.5741,1.5802,1.5828,1.5865,1.5867,1.5889,1.5873,1.5866,1.5865,1.5862,1.5864,1.5891,1.5892,1.5892,1.5892,0,1.5436,1.5445,1.548,1.5518,1.5546,1.5578,1.5608,1.5626,1.5652,1.5678,1.5718,1.5743,1.5792,1.583,1.5869,1.5889,1.5894,1.5897,1.5904,1.5898,1.5887,1.5891,1.5832,1.5895,1.5895,1.5895,1.5895,1.5895,1.5468,1.5494,1.5528,1.5566,1.5591,1.5619,1.5646,1.5668,1.5701,1.5743,1.5753,1.5794,1.5826,1.5879,1.59,1.5931,1.5927,1.5938,1.594,1.5942,1.5941,1.5884,1.5939,1.5939,1.5938,1.5938,1.5938,0,1.5518,1.554,1.5574,1.5616,1.5645,1.5648,1.5682,1.5705,1.5741,1.5771,1.5802,1.5846,1.5882,1.591,1.5947,1.5967,1.597,1.5976,1.5974,1.5978,1.5943,1.5933,1.5972,1.5972,1.5972,1.5972,1.5972,1.5972,1.5547,1.5591,1.5604,1.566,1.5681,1.5721,1.574,1.5765,1.5788,1.5837,1.5867,1.5885,1.5914,1.5953,1.5986,1.5993,1.6005,1.601,1.6017,1.5984,1.598,1.5977,1.5967,1.6013,1.6013,1.6048,1.6049,1.6049]},{"header":{"parameterUnit":"m.s-1","parameterCategory":1,"la1":30.2991,"la2":30.254,"lo1":-89.0895,"lo2":-89.0444,"dy":0.0017,"dx":0.0017,"nx":28,"ny":28,"refTime":"2023-10-09T03:00:00:Z","depth":0,"parameterNumber":3,"parameterNumberName":"V-component_of_WINDS"},"data":[0,0,0,0,0,0,0,0,0,0,0,0,0,0,0,0,0,0,0,0,0,0,0,0,0,0,0,0,0,0,0,0,0,0,0,0,0,0,0,0,0,0,0,0,0,0,0,0,0,0,0,0,0,0,0,0,0,0,3.107,3.1069,0,3.1019,3.1018,3.1018,3.094,3.0938,3.0937,3.0936,3.0883,3.0883,3.0883,0,0,0,0,0,0,0,0,0,0,0,0,0,3.1098,3.1098,3.107,3.1069,3.1069,3.1019,3.1018,3.1018,3.094,3.0938,3.0937,3.0935,3.0884,3.0883,3.0883,0,0,0,0,0,0,0,0,0,0,0,0,0,3.107,3.1098,3.107,3.1024,3.1019,3.1019,3.1018,3.1017,3.094,3.0938,3.0936,3.0934,3.0884,3.0883,3.0883,3.0924,0,0,3.0883,3.0883,0,0,0,0,0,0,0,0,3.1072,3.1069,3.1031,3.1027,3.1022,3.0984,3.1009,3.0986,3.0941,3.097,3.0936,3.0933,3.0918,3.0915,3.091,3.0922,3.0919,3.0883,3.0883,3.0883,3.0883,0,0,0,0,0,0,0,3.1074,3.1071,3.105,3.1031,3.1025,3.1005,3.0999,3.1004,3.0957,3.0968,3.0962,3.0957,3.0915,3.0911,3.0909,3.0919,3.0883,3.0883,3.0883,3.0883,3.0956,3.0958,0,0,0,0,0,0,3.1083,3.1073,3.1051,3.1048,3.1042,3.1006,3.0999,3.0998,3.0956,3.0948,3.0959,3.0954,3.0912,3.0909,3.0906,3.0948,3.0883,3.0883,3.0882,3.0954,3.0957,3.0959,0,0,0,0,0,0,3.1084,3.1082,3.1053,3.1059,3.1054,3.1008,3.1007,3.0998,3.0993,3.095,3.0941,3.0963,3.091,3.0907,3.0919,3.0945,3.0882,3.0882,3.0952,3.0955,3.0958,3.1034,0,0,0,0,0,0,3.1085,3.1082,3.1098,3.106,3.1054,3.1068,3.1009,3.0999,3.0993,3.0986,3.0951,3.0943,3.0908,3.092,3.0919,3.0944,3.0882,3.0949,3.0953,3.0957,3.1029,3.1039,3.1048,0,0,0,0,0,3.1086,3.1122,3.1099,3.1097,3.1073,3.107,3.1066,3.1025,3.0996,3.101,3.0982,3.0944,3.0943,3.0922,3.092,3.0946,3.0948,3.0952,3.0957,3.1025,3.1037,3.1048,0,0,0,0,0,0,3.1165,3.1116,3.109,3.1115,3.1097,3.1057,3.1074,3.1041,3.103,3.1024,3.0973,3.0966,3.0984,3.0967,3.0944,3.0981,3.0939,3.0944,3.0991,3.1003,3.1013,3.1015,3.0882,0,0,0,0,0,3.1185,3.1187,3.1145,3.1171,3.1163,3.112,3.1118,3.1087,3.1066,3.1058,3.1031,3.1012,3.1006,3.1004,3.0998,3.1027,3.1016,3.1043,3.1053,3.1061,3.1065,3.1075,3.1085,3.0974,3.0974,3.0974,0,0,3.1227,3.1201,3.1205,3.1186,3.1168,3.117,3.1114,3.112,3.112,3.1059,3.1068,3.1048,3.1023,3.1043,3.1051,3.1029,3.1093,3.1067,3.1074,3.1073,3.1081,3.1091,3.1101,3.0977,3.0977,3.0976,0,0,3.1304,3.1286,3.1303,3.1286,3.126,3.1231,3.1236,3.12,3.1183,3.1192,3.1145,3.1145,3.1138,3.1121,3.1112,3.118,3.1144,3.1179,3.1229,3.1239,3.1248,3.1255,3.1276,3.1285,3.1184,3.1184,3.1184,0,3.1359,3.136,3.1317,3.1324,3.1316,3.1261,3.1277,3.1263,3.1236,3.1231,3.1207,3.1195,3.1175,3.1188,3.1204,3.12,3.1201,3.1182,3.125,3.1257,3.1264,3.1283,3.1292,3.1188,3.1188,3.1187,3.1187,0,3.1428,3.143,3.1447,3.1421,3.1415,3.1428,3.1385,3.1384,3.1354,3.1327,3.1335,3.1309,3.1294,3.1295,3.1267,3.1304,3.1291,3.126,3.1216,3.1279,3.1296,3.1304,3.1194,3.1193,3.1191,3.119,0,0,3.1552,3.1501,3.1507,3.1494,3.146,3.146,3.1469,3.1454,3.1453,3.1436,3.144,3.1435,3.1405,3.1394,3.1363,3.1373,3.1425,3.134,3.1339,3.1354,3.146,3.1481,3.1491,3.1401,3.1403,3.1404,3.1461,0,3.1619,3.1631,3.1591,3.1613,3.1612,3.1559,3.1566,3.1546,3.1521,3.1516,3.1488,3.1484,3.1446,3.1439,3.1447,3.1417,3.1445,3.1413,3.1403,3.1403,3.1408,3.15,3.1524,3.1579,3.1467,3.1469,3.147,0,3.1699,3.1685,3.1706,3.1669,3.1667,3.1674,3.1656,3.1653,3.1628,3.1608,3.1596,3.156,3.1564,3.1524,3.1528,3.1507,3.1501,3.1485,3.1486,3.1482,3.1438,3.1495,3.1596,3.1603,3.148,3.1479,3.1479,0,3.1783,3.177,3.178,3.177,3.1728,3.1733,3.1716,3.1689,3.1681,3.1666,3.166,3.1645,3.1636,3.1625,3.1585,3.1561,3.1592,3.155,3.1574,3.1575,3.1581,3.1581,3.1679,3.1583,3.1583,3.1583,3.1582,0,3.186,3.1874,3.1816,3.1822,3.1836,3.179,3.1805,3.1782,3.1758,3.1757,3.1712,3.1712,3.1661,3.1655,3.1624,3.1629,3.1627,3.161,3.1601,3.1612,3.1614,3.1605,3.1599,3.1585,3.1584,3.1584,3.1583,0,3.1955,3.1917,3.1924,3.1883,3.1873,3.1885,3.1849,3.1852,3.1824,3.1823,3.1821,3.1776,3.1767,3.1726,3.1708,3.1687,3.1701,3.1686,3.171,3.1703,3.1728,3.1725,3.1822,3.1831,3.1732,3.1733,3.1734,0,3.2006,3.2015,3.1975,3.1971,3.1955,3.195,3.1942,3.1897,3.189,3.1861,3.1867,3.1854,3.184,3.1827,3.1793,3.1777,3.1759,3.1794,3.1756,3.1767,3.1756,3.1754,3.1753,3.1801,3.1803,3.1804,3.1805,0,3.2098,3.2078,3.2068,3.2052,3.2043,3.2028,3.201,3.2009,3.1959,3.1954,3.1943,3.1933,3.1912,3.1899,3.1877,3.1858,3.1822,3.1817,3.1821,3.1831,3.1843,3.1834,3.1728,3.1815,3.1814,3.1813,3.1812,3.1812,3.217,3.2174,3.2146,3.2136,3.2117,3.2101,3.2101,3.2072,3.2063,3.2043,3.2017,3.2009,3.1981,3.1948,3.1932,3.1923,3.1904,3.1911,3.1912,3.1913,3.1918,3.1847,3.192,3.192,3.1919,3.1919,3.1919,0,3.2256,3.2235,3.2227,3.2202,3.2194,3.2162,3.214,3.2134,3.2128,3.2105,3.2093,3.2079,3.2065,3.2029,3.2011,3.2012,3.1995,3.2008,3.2006,3.2001,3.1938,3.1935,3.2022,3.2022,3.2022,3.2022,3.2022,3.2022,3.23,3.2306,3.2283,3.2278,3.2256,3.2248,3.2237,3.2221,3.2202,3.2189,3.2177,3.2154,3.2125,3.2105,3.209,3.2079,3.2073,3.2092,3.2076,3.2016,3.2006,3.1997,3.1993,3.2092,3.2092,3.2139,3.214,3.214]}]]